Torna al catalogo

OXP 1

AttivoScienzaLEO
NORAD 22489·PAYLOAD·🇺🇸 United States

Lanciato Feb 9, 1993 da Cape Canaveral Space Force Station

Loading…

Prossimi Passaggi (prossime 24 ore)

TLE

AggiornatoSource: Space-Track

Epoca: Sep 14, 2026, 14:26 UTC

1 22489U 93009A   26257.60174654  .00000384  00000-0  52787-4 0  9999
2 22489  24.9657   1.1088 0039727  41.9096 318.4443 14.47142158774153

Traccia OXP 1 in tempo reale con AllMySat

Download on the App Store